Terminal Aerodrome Forecast
Issued by NWS

Home | Current Version | Previous Version | Graphics & Text | Print | Product List | Glossary On
Versions: 1 2 3 4 5 6 7 8 9 10 11 12 13 14 15 16 17 18 19
000
FTUS43 KBIS 200704 AAA
TAFJMS
TAF AMD
KJMS 200704Z 2007/2106 29013G20KT P6SM FEW020 SCT030
     FM201000 27011KT P6SM FEW050 SCT200
     FM201700 24013KT P6SM FEW060 FEW250
     FM210000 20008KT P6SM FEW100 FEW250
     FM210300 16009KT P6SM FEW130 FEW250 WS013/19025KT=

USA.gov is the U.S. government's official web portal to all federal, state and local government web resources and services.